Weather History for Meadville, PA

Change the Weather History Date:

Saturday, March 2, 2013

  Actual Average Record
Temperature  
Mean Temperature 22 °F -  
Max Temperature 23 °F 41 °F 63 °F (1972)
Min Temperature 21 °F 21 °F -12 °F (1980)
Degree Days  
Heating Degree Days 43    
Moisture  
Dew Point 18 °F    
Average Humidity 85    
Maximum Humidity 88    
Minimum Humidity 78    
Precipitation  
Precipitation 0.00 in - - ()
Sea Level Pressure  
Sea Level Pressure 29.94 in    
Wind  
Wind Speed 6 mph (NW)    
Max Wind Speed 10 mph    
Max Gust Speed -    
Visibility 6 miles    
Events Snow    
Averages and records for this station are not official NWS values.
T = Trace of Precipitation, MM = Missing Value Source: NWS Daily Summary

Daily Weather History Graph

Daily Weather History Graph

Search for Another Location

Airport:

Trip Planner

Search our weather history database for the weather conditions in past years. The results will help you decide how hot, cold, wet, or windy it might be!

Date:

Astronomy

Mar. 02, 2013 Rise Set
Actual Time 6:53 AM EST 6:12 PM EST
Civil Twilight 6:25 AM EST 6:40 PM EST
Nautical Twilight 5:53 AM EST 7:12 PM EST
Astronomical Twilight 5:21 AM EST 7:45 PM EST
Moon 11:55 PM EST (3/2) 9:15 AM EST (3/2)
Length of Visible Light 12h 14m
Length of Day
11h 19m
Waning Gibbous, 74% of the Moon is Illuminated
Mar 2
Waning Gibbous
Mar 4
Last Quarter
Mar 11
New
Mar 19
First Quarter
Mar 27
Full

Hourly Weather History & Observations

Time (EST) Temp. Windchill Dew Point Humidity Pressure Visibility Wind Dir Wind Speed Gust Speed Precip Events Conditions
12:53 AM 21.9 °F 12.5 °F 18.0 °F 85% 29.98 in 8.0 mi NNW 8.1 mph - N/A   Overcast
1:29 AM 21.2 °F - 17.6 °F 86% 29.92 in 8.0 mi Calm Calm - N/A   Overcast
1:53 AM 21.9 °F 17.2 °F 18.0 °F 85% 29.98 in 8.0 mi Variable 3.5 mph - N/A   Overcast
2:53 AM 21.0 °F 12.4 °F 18.0 °F 88% 29.96 in 9.0 mi NNW 6.9 mph - N/A   Overcast
3:53 AM 21.0 °F 16.2 °F 18.0 °F 88% 29.96 in 8.0 mi NW 3.5 mph - N/A   Overcast
4:53 AM 21.0 °F 13.4 °F 17.1 °F 85% 29.96 in 10.0 mi NW 5.8 mph - N/A   Overcast
5:53 AM 21.9 °F - 18.0 °F 85% 29.96 in 10.0 mi Calm Calm - N/A   Overcast
6:53 AM 21.9 °F - 18.0 °F 85% 29.96 in 10.0 mi Calm Calm - N/A   Overcast
7:53 AM 21.9 °F 17.2 °F 18.0 °F 85% 29.96 in 4.0 mi NNW 3.5 mph - N/A   Overcast
8:36 AM 21.2 °F 16.4 °F 17.6 °F 86% 29.91 in 4.0 mi Variable 3.5 mph - 0.00 in Snow Light Snow
8:53 AM 21.9 °F 13.4 °F 18.0 °F 85% 29.96 in 6.0 mi NW 6.9 mph - 0.00 in   Overcast
9:53 AM 21.9 °F 14.5 °F 18.0 °F 85% 29.96 in 5.0 mi WNW 5.8 mph - 0.00 in Snow Light Snow
10:53 AM 21.9 °F 14.5 °F 18.0 °F 85% 29.96 in 5.0 mi NW 5.8 mph - 0.00 in   Overcast
11:41 AM 21.2 °F 11.7 °F 17.6 °F 86% 29.91 in 5.0 mi NW 8.1 mph - N/A   Overcast
11:53 AM 21.9 °F 13.4 °F 18.0 °F 85% 29.97 in 6.0 mi NW 6.9 mph - N/A   Overcast
12:53 PM 21.0 °F 12.4 °F 18.0 °F 88% 29.96 in 8.0 mi WNW 6.9 mph - N/A   Overcast
1:53 PM 21.9 °F 12.5 °F 18.0 °F 85% 29.96 in 9.0 mi WNW 8.1 mph - N/A   Overcast
2:53 PM 23.0 °F 13.9 °F 17.1 °F 78% 29.95 in 10.0 mi NW 8.1 mph - N/A   Overcast
3:53 PM 21.9 °F 14.5 °F 17.1 °F 82% 29.95 in 7.0 mi NW 5.8 mph - N/A   Overcast
4:53 PM 21.9 °F 11.7 °F 18.0 °F 85% 29.95 in 4.0 mi NW 9.2 mph - 0.00 in Snow Light Snow
5:14 PM 21.2 °F 12.6 °F 17.6 °F 86% 29.89 in 2.5 mi WNW 6.9 mph - 0.00 in Snow Light Snow
5:53 PM 23.0 °F 13.9 °F 19.0 °F 85% 29.95 in 2.5 mi WNW 8.1 mph - 0.00 in Snow Light Snow
6:07 PM 23.0 °F 15.8 °F 19.4 °F 86% 29.89 in 3.0 mi WNW 5.8 mph - 0.00 in Snow Light Snow
6:53 PM 23.0 °F 14.7 °F 19.0 °F 85% 29.96 in 5.0 mi NW 6.9 mph - 0.00 in Snow Light Snow
7:43 PM 23.0 °F 14.7 °F 19.4 °F 86% 29.90 in 4.0 mi NNW 6.9 mph - 0.00 in Snow Light Snow
8:35 PM 23.0 °F 12.4 °F 19.4 °F 86% 29.90 in 2.5 mi NW 10.4 mph - 0.00 in Snow Light Snow
8:53 PM 23.0 °F 15.8 °F 19.9 °F 88% 29.96 in 3.0 mi NW 5.8 mph - 0.00 in Snow Light Snow
9:04 PM 23.0 °F 15.8 °F 19.4 °F 86% 29.90 in 2.5 mi NW 5.8 mph - 0.00 in Snow Light Snow
9:22 PM 23.0 °F 15.8 °F 19.4 °F 86% 29.91 in 3.0 mi NW 5.8 mph - 0.00 in Snow Light Snow
9:53 PM 23.0 °F 14.7 °F 19.9 °F 88% 29.96 in 3.0 mi Variable 6.9 mph - 0.00 in Snow Light Snow
10:14 PM 23.0 °F 12.4 °F 19.4 °F 86% 29.90 in 4.0 mi NW 10.4 mph - 0.00 in   Overcast
10:53 PM 23.0 °F 15.8 °F 19.0 °F 85% 29.96 in 9.0 mi NNW 5.8 mph - 0.00 in   Overcast
11:53 PM 23.0 °F 13.1 °F 18.0 °F 81% 29.95 in 8.0 mi North 9.2 mph - N/A   Overcast